Location: Key Biscayne
(25.6930°N, 80.1630°W)
Time: 17:24:26
(UTC-04:00)

CZ-2D R/B - Visible Passes

Search period start: 17 April 2014 00:00
Search period end: 27 April 2014 00:00
Orbit: 538 x 557 km, 97.6° (Epoch: 16 April)

Date Brightness Start Highest point End Pass type
(mag) Time Alt. Az. Time Alt. Az. Time Alt. Az.
17 Apr 5.6 21:35:19 10° SSW 21:38:21 22° W 21:41:24 10° NW visible
18 Apr 5.3 21:30:01 10° SSW 21:33:16 26° W 21:36:32 10° NW visible
19 Apr 5.0 21:24:48 10° SSW 21:28:10 30° W 21:31:38 10° NW visible
20 Apr 4.7 21:19:38 11° SSW 21:23:05 36° W 21:26:41 10° NNW visible
21 Apr 4.4 21:14:27 11° S 21:18:00 43° W 21:21:42 10° NNW visible
22 Apr 4.0 21:09:16 11° S 21:12:54 51° W 21:16:41 10° NNW visible
23 Apr 3.7 21:04:05 11° S 21:07:48 62° W 21:11:39 10° NNW visible
24 Apr 3.4 20:58:53 10° S 21:02:42 75° W 21:06:35 10° NNW visible
25 Apr 3.2 20:53:44 10° SSE 20:57:36 89° W 21:01:30 10° NNW visible
26 Apr 3.2 20:48:38 10° SSE 20:52:29 76° ENE 20:56:23 10° N visible
